Temp
56 57 62 66 66 66 65 65 65 65 64 64 65 65 65 65 66 66 66 65 65 66 65 65 67 67 67 67 67 68 68 67
54 55 55 55 56 65 64 63 63 63 63 62 60 61 61 63 61 63 63 63 63 63 63 62 63 64 64 65 66 67 67 68
52 53 53 54 56 60 59 61 60 58 56 58 53 52 53 54 60 60 61 60 60 60 60 59 59 59 61 62 63 64 65 67
49 50 51 53 58 51 51 54 51 51 50 49 50 49 53 53 55 56 57 56 56 56 57 56 54 53 54 57 57 58 61 61
50 50 50 50 50 49 49 50 49 50 49 48 47 48 48 48 47 47 47 51 48 49 49 49 49 50 51 52 53 54 54 57
49 49 49 48 49 48 47 49 48 48 48 47 45 45 45 45 45 45 45 45 45 45 45 47 46 48 49 49 51 51 52 54
47 48 48 48 48 47 46 46 47 46 46 47 45 44 43 43 43 44 44 44 44 43 44 44 45 46 47 48 48 49 51 52
47 47 47 48 46 46 45 45 45 46 46 46 46 44 42 42 42 43 43 43 43 42 42 42 42 44 45 46 47 48 49 50
47 47 47 47 46 46 45 46 46 45 45 45 45 44 42 41 41 41 42 42 42 42 42 42 42 44 43 44 46 47 48 49
46 51 46 45 45 45 45 45 44 44 44 44 44 44 43 41 41 41 41 41 41 41 40 40 40 41 41 43 43 45 47 49
45 45 45 44 44 44 44 43 44 43 43 42 43 43 43 41 41 41 42 41 41 41 40 40 40 40 42 43 42 43 45 49
44 44 44 44 44 43 43 43 43 43 42 42 43 43 42 41 41 41 42 40 40 40 40 41 40 40 42 42 42 43 45 45
44 44 43 43 42 41 40 39 40 41 42 42 42 41 42 40 40 40 40 39 39 40 39 39 40 41 38 38 41 44 44 43
42 42 42 41 40 41 41 39 39 40 40 41 41 41 40 41 38 38 38 38 38 38 38 38 39 41 36 36 34 39 41 42
42 41 41 42 41 42 40 40 39 38 37 37 39 40 40 39 38 37 37 37 36 37 36 36 34 39 40 35 33 32 35 41
40 41 41 42 41 40 38 38 35 37 38 37 37 38 38 38 37 36 35 35 35 36 38 36 36 34 38 39 40 37 31 32
40 41 42 41 41 40 40 36 36 36 36 36 35 36 36 36 36 34 34 33 34 34 34 34 35 35 32 33 36 38 35 31
38 39 39 41 40 39 37 34 34 33 32 31 32 33 33 34 34 32 33 32 33 34 34 33 32 34 32 31 32 30 29 29
37 37 37 38 37 36 35 34 33 32 31 31 30 30 30 31 31 31 31 32 33 34 33 34 31 30 30 30 32 30 31 31
35 35 35 35 36 35 34 34 33 32 31 30 29 31 29 29 29 30 30 31 32 33 31 30 29 30 30 29 29 29 31 31
MSLP
1017.52 1017.53 1017.41 1017.24 1017.24 1017.27 1017.30 1017.37 1017.29 1017.27 1017.35 1017.30 1017.23 1017.27 1017.26 1017.18 1017.09 1017.06 1017.11 1017.00 1016.90 1016.81 1016.48 1016.28 1015.96 1015.68 1015.36 1015.08 1014.81 1014.61 1014.72 1014.89
1018.16 1018.14 1017.96 1017.90 1017.90 1017.77 1017.89 1018.00 1018.07 1018.03 1018.01 1018.14 1018.10 1017.88 1017.59 1017.51 1017.57 1017.49 1017.53 1017.36 1017.23 1017.13 1016.94 1016.65 1016.39 1016.18 1015.85 1015.42 1014.96 1014.57 1014.49 1014.54
1018.59 1018.42 1018.39 1018.31 1018.38 1018.47 1018.52 1018.68 1018.79 1018.84 1018.90 1018.84 1019.04 1018.95 1018.76 1018.56 1018.17 1017.86 1017.53 1017.72 1017.74 1017.56 1017.27 1017.06 1016.72 1016.39 1016.19 1015.97 1015.46 1015.15 1014.74 1014.43
1019.12 1018.96 1018.99 1018.91 1019.05 1019.30 1019.47 1019.58 1019.54 1019.53 1019.55 1019.51 1019.55 1019.67 1019.48 1019.41 1019.02 1018.67 1018.48 1018.24 1018.07 1017.95 1017.79 1017.44 1017.25 1016.88 1016.58 1016.21 1016.22 1016.06 1015.44 1015.07
1018.92 1018.75 1018.91 1019.24 1019.58 1019.83 1020.03 1020.08 1020.04 1020.08 1020.07 1020.04 1020.04 1020.12 1019.88 1019.75 1019.75 1019.60 1019.12 1018.69 1018.70 1018.42 1018.23 1018.06 1017.77 1017.52 1016.97 1016.77 1016.61 1016.39 1016.22 1015.67
1019.61 1019.52 1019.36 1019.35 1019.54 1020.00 1020.33 1020.28 1020.29 1020.41 1020.51 1020.53 1020.55 1020.46 1020.37 1020.44 1020.33 1019.87 1019.60 1019.32 1018.96 1018.76 1018.59 1018.34 1018.12 1017.96 1017.56 1017.14 1016.77 1016.59 1016.30 1015.97
1020.15 1020.01 1020.11 1020.26 1020.13 1020.35 1020.73 1021.01 1020.97 1021.03 1020.88 1020.86 1020.88 1020.95 1020.87 1020.58 1020.20 1020.21 1020.09 1019.78 1019.37 1019.13 1018.77 1018.59 1018.26 1018.04 1017.61 1017.31 1017.13 1016.82 1016.54 1016.15
1020.26 1020.23 1020.24 1020.20 1020.66 1020.96 1021.21 1021.13 1021.38 1021.53 1021.66 1021.73 1021.52 1021.37 1021.29 1021.39 1021.47 1020.92 1020.31 1019.88 1019.74 1019.63 1019.27 1019.01 1018.72 1018.20 1017.68 1017.39 1017.11 1016.95 1016.72 1016.38
1020.43 1020.46 1020.49 1020.66 1021.00 1021.24 1021.42 1021.57 1021.78 1022.00 1022.12 1022.09 1022.12 1022.07 1021.84 1021.60 1021.46 1021.40 1021.38 1020.70 1020.06 1019.70 1019.39 1019.04 1018.77 1018.41 1018.05 1017.51 1017.08 1016.90 1016.70 1016.37
1020.61 1020.56 1020.83 1020.94 1021.25 1021.71 1022.01 1022.13 1022.09 1022.34 1022.47 1022.49 1022.31 1022.35 1022.30 1022.19 1021.99 1021.65 1021.47 1021.23 1020.85 1020.20 1019.67 1019.17 1018.81 1018.31 1017.95 1017.65 1017.33 1016.94 1016.64 1016.24
1020.88 1021.01 1021.16 1021.36 1021.54 1021.84 1022.18 1022.46 1022.36 1022.50 1022.77 1023.00 1023.02 1022.81 1022.73 1022.52 1022.28 1022.05 1021.57 1021.30 1020.92 1020.67 1020.19 1019.86 1019.12 1018.41 1017.64 1017.40 1017.39 1017.11 1017.01 1016.70
1021.18 1021.37 1021.52 1021.68 1021.81 1022.09 1022.51 1022.84 1022.92 1022.99 1023.31 1023.44 1023.36 1023.42 1023.37 1023.18 1022.82 1022.46 1021.92 1021.50 1021.35 1020.95 1020.68 1020.14 1019.91 1018.98 1017.89 1017.23 1017.30 1017.30 1017.28 1017.10
1021.44 1021.67 1021.90 1021.86 1022.23 1022.52 1022.84 1023.19 1023.31 1023.48 1023.73 1023.98 1023.97 1023.82 1023.56 1023.51 1023.43 1022.99 1022.42 1022.13 1021.87 1021.53 1021.04 1020.59 1019.87 1019.21 1018.19 1017.76 1017.33 1017.44 1017.47 1017.54
1021.68 1021.83 1022.07 1022.05 1022.16 1022.51 1022.99 1023.30 1023.63 1023.72 1024.08 1024.29 1024.42 1024.16 1023.98 1023.62 1023.81 1023.54 1023.08 1022.71 1022.38 1022.05 1021.57 1021.03 1020.79 1020.27 1019.91 1019.28 1018.78 1018.06 1017.91 1017.96
1021.82 1022.06 1022.23 1022.21 1022.37 1022.69 1023.23 1023.46 1023.98 1024.17 1024.42 1024.64 1024.86 1024.73 1024.51 1024.13 1024.05 1023.99 1023.62 1023.20 1022.89 1022.64 1022.58 1022.04 1021.79 1021.45 1021.07 1020.98 1020.54 1020.32 1019.62 1018.20
1021.97 1022.33 1022.57 1022.61 1022.73 1023.26 1023.45 1023.55 1024.26 1024.87 1024.88 1024.96 1025.13 1025.02 1024.98 1024.63 1024.65 1024.63 1023.98 1023.72 1023.41 1023.26 1022.98 1022.84 1022.69 1022.41 1021.91 1021.87 1021.79 1021.78 1021.31 1019.94
1022.22 1022.37 1022.74 1022.84 1023.15 1023.21 1023.55 1024.11 1024.67 1025.20 1025.31 1025.66 1025.96 1025.49 1025.25 1024.83 1024.86 1025.34 1024.61 1024.21 1024.05 1023.83 1023.55 1023.55 1023.49 1023.43 1023.33 1022.92 1022.51 1022.03 1022.24 1021.86
1022.63 1022.91 1023.33 1023.24 1023.41 1023.79 1023.89 1024.29 1024.83 1025.29 1025.77 1025.91 1025.74 1025.62 1025.82 1025.55 1025.39 1025.41 1025.01 1024.94 1024.63 1024.20 1024.17 1024.08 1024.15 1024.15 1023.98 1023.79 1023.43 1023.51 1023.34 1023.01
1023.01 1023.21 1023.67 1023.69 1023.76 1024.10 1024.40 1024.74 1025.10 1025.31 1025.83 1026.23 1026.49 1026.19 1026.05 1026.11 1025.68 1025.76 1025.44 1025.32 1024.99 1024.69 1024.54 1024.68 1024.75 1024.76 1024.58 1024.45 1024.25 1024.43 1024.22 1023.66
1023.26 1023.60 1024.07 1024.22 1024.21 1024.52 1024.80 1025.14 1025.49 1025.75 1026.06 1026.15 1026.41 1026.42 1026.53 1026.38 1026.15 1026.07 1025.82 1025.57 1025.46 1025.34 1025.34 1025.35 1025.43 1025.16 1024.98 1025.10 1024.94 1024.88 1024.49 1024.07
Wind_Speed
7 6 10 15 16 16 17 16 16 16 15 15 16 16 17 16 17 16 16 16 17 17 17 17 16 15 13 11 8 6 4 3
6 6 7 7 6 16 17 17 17 17 16 15 14 15 15 16 15 15 16 16 16 16 17 17 17 16 16 16 12 8 3 4
6 6 6 7 7 10 14 16 17 16 14 16 11 7 7 10 14 14 16 15 16 16 16 16 16 14 16 18 15 6 7 3
5 6 6 7 7 7 7 8 7 8 8 8 6 7 9 10 13 17 17 17 16 16 16 15 13 6 6 11 5 8 6 7
5 5 6 7 6 4 4 4 4 5 8 7 6 5 5 5 4 5 5 12 6 8 8 7 8 6 5 5 7 6 4 5
5 6 6 7 5 4 4 4 4 5 6 7 5 4 5 5 5 5 5 5 6 6 5 7 7 8 7 7 7 5 4 4
5 6 6 5 7 5 4 5 5 4 5 7 4 4 5 3 3 3 5 5 6 6 6 6 7 8 7 7 8 7 7 4
4 6 6 7 6 6 4 4 4 5 6 7 8 6 4 5 5 5 5 4 5 4 6 6 6 6 7 7 7 7 7 6
6 6 6 7 7 5 4 5 5 6 6 8 9 8 6 5 4 5 6 5 5 4 5 4 5 6 7 6 4 5 5 7
5 5 6 7 7 5 5 4 5 5 5 5 7 7 6 5 5 5 4 4 5 5 6 6 6 6 7 5 4 4 4 6
6 6 7 7 7 6 6 6 5 4 5 5 7 8 8 5 5 5 5 5 6 6 6 5 7 8 8 5 3 3 4 6
6 5 7 7 6 6 5 6 5 5 5 6 7 6 8 5 5 7 5 5 6 7 7 6 6 9 8 6 3 2 3 4
5 7 4 5 3 4 4 4 3 4 6 6 7 6 5 7 5 7 6 7 7 8 6 9 8 11 4 4 3 3 7 5
6 6 5 3 3 3 3 3 4 4 4 6 6 6 7 7 7 7 8 6 9 9 10 7 6 9 6 3 5 4 5 5
6 5 5 5 6 6 4 4 3 3 4 4 6 8 8 7 7 6 7 6 6 8 9 10 6 7 11 5 4 4 9 3
7 6 6 6 5 4 3 3 4 2 3 3 5 7 7 8 8 7 6 5 7 7 7 6 6 8 3 8 6 3 3 7
6 6 6 6 6 7 7 7 5 3 3 5 5 6 7 7 7 7 7 5 6 7 7 8 6 6 5 5 6 3 9 4
6 7 5 5 7 6 8 8 6 5 4 3 3 3 4 6 6 6 6 6 5 5 6 8 7 7 5 6 6 5 6 5
6 7 6 6 7 7 7 7 7 7 5 3 3 3 3 5 6 6 5 6 6 7 7 7 6 5 6 6 6 6 5 4
7 7 6 6 7 7 6 6 4 4 4 4 3 3 3 5 5 5 7 7 7 7 6 6 6 5 8 7 5 5 5 5
Wind_Direction
50 53 71 70 78 72 67 63 64 62 59 63 64 63 58 56 52 46 39 35 28 22 21 16 13 14 19 359 328 276 265 252
43 46 56 56 41 69 63 57 55 52 54 53 59 62 64 60 49 42 36 33 29 24 20 16 9 6 6 358 338 336 313 276
37 49 53 65 57 61 59 57 53 49 43 47 34 25 31 33 47 45 47 35 28 22 19 13 8 4 358 353 351 351 335 316
47 44 45 53 62 51 49 49 45 43 39 36 40 27 42 40 34 37 31 32 27 22 16 15 10 358 350 355 352 345 343 345
79 91 79 71 67 58 51 48 43 41 41 41 39 38 35 37 24 13 16 29 21 14 9 7 359 349 348 346 338 342 335 331
45 51 67 77 92 76 68 64 53 56 43 35 34 38 39 28 19 16 20 7 13 14 4 357 354 345 340 339 339 335 335 330
49 59 59 62 77 78 67 55 57 50 46 41 34 29 30 26 42 25 17 5 12 6 5 357 349 342 338 341 335 333 332 332
83 74 84 94 95 83 74 72 61 51 46 35 33 34 30 25 6 11 20 20 10 358 355 346 337 333 332 334 330 330 329 324
93 87 87 90 96 87 77 61 59 58 53 43 33 28 24 23 21 16 360 351 0 356 360 343 338 335 324 324 322 330 327 329
85 95 96 102 97 82 75 64 69 66 57 44 39 35 24 13 13 19 355 354 359 357 358 355 348 342 330 322 321 330 342 355
102 90 91 102 96 92 83 72 69 67 59 44 29 28 21 19 16 0 1 11 11 2 358 352 349 341 328 327 329 354 26 4
108 100 102 104 107 99 79 70 58 55 51 42 33 29 19 8 13 8 11 21 17 12 3 353 350 337 318 325 331 26 51 31
113 112 123 121 111 107 87 91 71 65 59 38 33 25 23 21 9 11 12 20 15 11 357 1 8 352 344 354 7 69 33 38
119 109 118 130 124 114 123 128 89 96 82 51 33 31 25 38 22 13 14 13 16 15 14 9 10 10 1 311 3 337 25 8
125 111 99 96 100 105 92 84 61 50 49 60 33 29 26 33 26 18 12 16 19 21 10 21 10 15 36 33 356 348 333 342
113 105 97 94 103 90 90 99 107 63 79 77 54 36 23 28 20 12 23 16 25 19 21 21 7 25 13 13 42 337 339 320
126 110 98 98 102 108 112 99 93 100 73 65 33 24 24 23 34 6 15 20 15 24 28 28 25 36 20 2 8 7 37 312
111 111 96 100 99 101 111 116 115 91 72 74 57 39 16 26 27 16 20 9 8 23 21 43 29 36 24 15 32 21 357 357
124 122 111 105 106 100 99 102 104 109 102 89 52 26 31 15 28 20 19 7 6 35 28 40 32 39 28 29 25 39 8 343
124 121 114 106 106 107 102 103 100 94 97 99 83 69 39 26 28 27 22 20 17 39 35 28 31 29 32 35 28 19 10 10